ポンス-ブルックス彗星

12P/Pons-Brooks (2024)

English version
Home page
Updated on May 15, 2021

---------------------------------------------------------------------

・ プロフィール

・ 軌道要素

                    Epoch = 2024 May  10.0 TT
     T = 2024 Apr. 21.00504 TT        Peri. = 198.98782
     e = 0.9545989                    Node  = 255.85602 2000.0
     q = 0.7807733 AU                 Incl. =  74.19143
       a = 17.1972223 AU   n = 0.01382027   P =  71.32 years

・ 星図

・ 光度変化

        m1 = 4.5 + 5 logΔ + 12.5 log r

---------------------------------------------------------------------

軌道要素は、CBET 4805に掲載されたものです。
星図はステラナビゲータ Ver.10 (アストロアーツ) で作成したものです。
光度グラフはComet for Windowsで作成したものです。

---------------------------------------------------------------------

Copyright(C) Seiichi Yoshida (comet@aerith.net). All rights reserved.